"TOA5","AWS1","CR1000","7964","CR1000.Std.14","CPU:AWS1_114.CR1","64363","TBL110"
"TIMESTAMP","RECORD","Wind_spd_WVc(1)","Wind_spd_WVc(2)","Air_Temp_Avg","Humidity_Avg","SW_upper_Wm2_Avg","Rain_Tot","Press_Avg","Issui_Tot","Depth_cm","SR50A_Raw","Quality","Ground_Temp_Avg(1)","Ground_Temp_Avg(2)","SW_lower_Wm2_Avg","Albedo_Avg","SWC_per(1)","SWC_per(2)","Period(1)","Period(2)"
"TS","RN","","","","","","","","","","","","","","","","","","",""
"","","WVc","WVc","Avg","Avg","Avg","Tot","Avg","Tot","Smp","Smp","Smp","Avg","Avg","Avg","Avg","Smp","Smp","Smp","Smp"
"2018-06-24 00:00:00",346381,0.364,199,10.91,100,0,0,859.8305,0,17.05,2.95,250,16.4,16.28,0.841563,0,49.79,56.75,33.24,34.93
"2018-06-24 00:10:00",346382,0.227,191.9,11.01,100,0,0,859.8242,0,16.93,2.952,264,16.33,16.26,0.7126681,0,49.79,56.75,33.24,34.93
"2018-06-24 00:20:00",346383,0.212,191.1,11.1,100,0,0,859.8389,0,17.15,2.949,272,16.32,16.27,0.9097942,0,49.79,56.75,33.24,34.93
"2018-06-24 00:30:00",346384,0.5,190.3,11.08,100,0,0,859.8074,0,17.58,2.945,280,16.34,16.25,0.6861396,0,49.84,56.7,33.26,34.91
"2018-06-24 00:40:00",346385,0.355,190,11.17,100,0,0,859.8284,0,17.75,2.942,274,16.36,16.26,0.8301926,0,49.84,56.75,33.26,34.93
"2018-06-24 00:50:00",346386,0.128,187.3,11.44,99.5,0,0,859.8937,0,17.09,2.948,269,16.29,16.26,1.04248,0,49.79,56.75,33.24,34.93
"2018-06-24 01:00:00",346387,0.235,177.1,11.35,100,0,0,860.1274,0,18.16,2.938,320,16.3,16.27,0.7050917,0,49.79,56.75,33.24,34.93
"2018-06-24 01:10:00",346388,0.204,190.9,11.32,100,0,0,860.1927,0,18.59,2.934,388,16.31,16.27,0.6861331,0,49.79,56.7,33.24,34.91
"2018-06-24 01:20:00",346389,0.065,193.2,11.39,99.5,0,0,860.3297,0,18.06,2.938,409,16.26,16.28,0.8377702,0,49.79,56.75,33.24,34.93
"2018-06-24 01:30:00",346390,0,0,11.42,98.1,0,0,860.138,0,18,2.94,302,16.21,16.29,0.8301914,0,49.84,56.75,33.26,34.93
"2018-06-24 01:40:00",346391,0.078,188.7,11.09,100,0,0,859.8242,0,-16.77,3.283,170,16.22,16.26,0.5193443,0,49.79,56.75,33.24,34.93
"2018-06-24 01:50:00",346392,0.45,181.7,10.79,100,0,0,859.8221,0,-14.81,3.265,189,16.18,16.25,0.4549004,0,49.79,56.75,33.24,34.93
"2018-06-24 02:00:00",346393,0.463,181.8,10.57,100,0,0,859.7883,0,25.74,2.868,386,16.16,16.24,0.4549004,0,49.84,56.7,33.26,34.91
"2018-06-24 02:10:00",346394,0.514,182.7,10.45,100,0,0,859.7315,0,23.14,2.894,441,16.19,16.23,0.4549004,0,49.84,56.75,33.26,34.93
"2018-06-24 02:20:00",346395,0.392,187.3,10.41,100,0,0,859.8074,0,20.06,2.924,323,16.14,16.2,0.7278406,0,49.79,56.75,33.24,34.93
"2018-06-24 02:30:00",346396,0.378,191.2,10.37,100,0,0,859.6093,0,17.51,2.949,272,16.15,16.19,0.7922848,0,49.84,56.75,33.26,34.93
"2018-06-24 02:40:00",346397,0.635,186.3,10.26,100,0,0,859.4177,0,17.96,2.946,265,16.09,16.2,0.5155538,0,49.84,56.75,33.26,34.93
"2018-06-24 02:50:00",346398,0.581,188.9,10.23,100,0,0,859.5714,0,18.95,2.936,363,16.08,16.2,0.7847031,0,49.84,56.75,33.26,34.93
"2018-06-24 03:00:00",346399,0.619,185.2,10.29,100,0,0,859.5187,0,17.46,2.95,298,16.09,16.2,0.9098007,0,49.84,56.75,33.26,34.93
"2018-06-24 03:10:00",346400,0.415,184.7,10.52,98.2,0,0,859.3229,0,25.82,2.867,307,16.05,16.2,1.08797,0,49.84,56.75,33.26,34.93
"2018-06-24 03:20:00",346401,0.502,187.6,10.49,97.6,0,0,859.3187,0,26.25,2.863,325,15.98,16.22,0.9666633,0,49.84,56.75,33.26,34.93
"2018-06-24 03:30:00",346402,0.494,185.7,10.54,96.2,0,0,859.3187,0,-12.54,3.243,173,16.01,16.23,1.031107,0,49.84,56.75,33.26,34.93
"2018-06-24 03:40:00",346403,0.52,186.1,10.53,96.5,0,0,859.3587,0,-12.82,3.246,169,16.02,16.23,0.974245,0,49.84,56.75,33.26,34.93
"2018-06-24 03:50:00",346404,0.402,187.6,10.58,93.3,0,0,859.4598,0,25.21,2.873,271,15.97,16.21,1.13346,0,49.84,56.75,33.26,34.93
"2018-06-24 04:00:00",346405,0.245,187.1,10.63,92.6,0,0,859.3524,0,25.31,2.871,271,15.92,16.16,1.228231,0,49.84,56.75,33.26,34.93
"2018-06-24 04:10:00",346406,0.309,27.03,12.2,78.71,0,0,859.3187,0,24.81,2.866,254,15.9,16.15,3.207047,0,49.84,56.75,33.26,34.93
"2018-06-24 04:20:00",346407,0.119,50.13,11.78,81.8,0,0,859.3229,0,25.38,2.87,266,15.91,16.15,1.713458,0,49.84,56.81,33.26,34.94
"2018-06-24 04:30:00",346408,0.004,52.71,11.09,86,0,0,859.3207,0,26.17,2.861,249,15.9,16.14,1.421564,0,49.9,56.81,33.27,34.94
"2018-06-24 04:40:00",346409,0.007,53.29,10.65,91,0.3420515,0,859.4156,0,25.27,2.872,247,15.87,16.14,1.239603,0.677,49.84,56.81,33.26,34.94
"2018-06-24 04:50:00",346410,0.326,177,10.48,91.7,2.846498,0,859.5693,0,25.34,2.872,267,15.82,16.11,1.762739,0.636,49.9,56.81,33.27,34.94
"2018-06-24 05:00:00",346411,0.102,192.3,10.78,88.1,8.747869,0,859.6514,0,25.13,2.871,261,15.85,16.11,2.972016,0.363,49.9,56.75,33.27,34.93
"2018-06-24 05:10:00",346412,0.012,192,11.02,87.2,13.83146,0,859.8242,0,25.8,2.867,245,15.82,16.11,3.555804,0.256,49.84,56.81,33.26,34.94
"2018-06-24 05:20:00",346413,0.407,193.2,10.39,92.6,14.70822,0,859.8242,0,24.83,2.877,240,15.74,16.12,2.725611,0.185,49.84,56.81,33.26,34.94
"2018-06-24 05:30:00",346414,0.761,52.61,11.12,87,38.8484,0,859.6287,0,-12.17,3.229,180,15.74,16.14,7.29736,0.184,49.9,56.81,33.27,34.94
"2018-06-24 05:40:00",346415,0.922,40.67,12.92,73.22,58.82107,0,859.5765,0,-12.11,3.224,174,15.74,16.12,12.36571,0.21,49.84,56.81,33.26,34.94
"2018-06-24 05:50:00",346416,0.752,41.53,13.6,69.43,57.06363,0,859.5727,0,-22.97,3.325,191,15.75,16.11,10.82663,0.191,49.9,56.75,33.27,34.93
"2018-06-24 06:00:00",346417,0.112,23.44,13.5,75.2,73.30518,0,859.7066,0,17.32,2.941,282,15.75,16.09,11.77813,0.159,49.9,56.81,33.27,34.94
"2018-06-24 06:10:00",346418,0.056,13.06,12.44,82.1,87.54111,0,859.7211,0,17.19,2.941,282,15.68,16.08,17.92673,0.211,49.9,56.75,33.27,34.93
"2018-06-24 06:20:00",346419,0.057,59.96,12.72,81.2,78.75119,0,859.5715,0,24.04,2.875,273,15.66,16.06,25.35958,0.353,49.9,56.81,33.27,34.94
"2018-06-24 06:30:00",346420,0.39,7,12.82,81.8,133.8682,0,859.6368,0,-11.27,3.217,178,15.6,16.03,28.3669,0.256,49.84,56.81,33.26,34.94
"2018-06-24 06:40:00",346421,0.48,3.254,12.99,77.71,183.6782,0,859.8201,0,-13.35,3.237,170,15.56,16,30.75535,0.199,49.9,56.75,33.27,34.93
"2018-06-24 06:50:00",346422,0.406,350.8,13.19,76.25,57.62027,0,859.8306,0,27.43,2.837,333,15.55,15.98,32.93621,0.574,49.9,56.81,33.27,34.94
"2018-06-24 07:00:00",346423,0.233,30.71,13.86,73.69,93.35719,0,859.8242,0,-14.61,3.244,178,15.54,15.97,32.82545,0.383,49.9,56.81,33.27,34.94
"2018-06-24 07:10:00",346424,0.517,6.028,14.06,73.33,77.65492,0,859.8242,0,-13.2,3.229,168,15.54,15.93,34.71614,0.487,49.9,56.81,33.27,34.94
"2018-06-24 07:20:00",346425,0.478,349,14.35,73.49,86.11265,0,859.9528,0,19.42,2.909,249,15.51,15.89,36.1106,0.489,49.84,56.81,33.26,34.94
"2018-06-24 07:30:00",346426,0.569,10.16,14.61,73.51,120.762,0,860.1107,0,-9.01,3.187,181,15.47,15.89,39.17631,0.353,49.9,56.81,33.27,34.94
"2018-06-24 07:40:00",346427,0.564,340.7,14.66,72.32,191.0237,0,860.2771,0,15.25,2.947,254,15.45,15.9,43.83366,0.349,49.84,56.81,33.26,34.94
"2018-06-24 07:50:00",346428,0.356,342.7,15.28,70.21,536.6453,0,860.3255,0,17.86,2.919,233,15.45,15.9,47.93395,0.088,49.9,56.75,33.27,34.93
"2018-06-24 08:00:00",346429,0.336,324.9,15.65,69.27,648.8078,0,860.3298,0,22.92,2.868,355,15.46,15.89,73.0321,0.113,49.9,56.81,33.27,34.94
"2018-06-24 08:10:00",346430,0.588,14.76,15.43,73.99,662.8468,0,860.3298,0,-14.13,3.233,178,15.47,15.89,86.99278,0.131,49.9,56.75,33.27,34.93
"2018-06-24 08:20:00",346431,0.696,11.56,15.31,77.19,722.0998,0,860.3298,0,27.49,2.827,317,15.42,15.89,104.7657,0.145,49.95,56.75,33.28,34.93
"2018-06-24 08:30:00",346432,0.562,11.45,15.55,77.48,734.7632,0,860.3062,0,-10.78,3.198,169,15.41,15.89,111.3217,0.151,49.9,56.75,33.27,34.93
"2018-06-24 08:40:00",346433,0.588,359.1,15.94,72.38,641.041,0,860.242,0,18.28,2.912,283,15.38,15.88,94.57178,0.145,49.9,56.75,33.27,34.93
"2018-06-24 08:50:00",346434,0.585,188.5,15.94,73.26,414.0381,0,860.1561,0,-13.32,3.222,186,15.39,15.82,60.24038,0.144,49.9,56.75,33.27,34.93
"2018-06-24 09:00:00",346435,0.386,130,16.18,75.06,675.1456,0,860.2518,0,-16.19,3.245,186,15.38,15.75,105.6521,0.154,49.9,56.75,33.27,34.93
"2018-06-24 09:10:00",346436,0.607,12.34,16.5,74.82,719.2394,0,860.2563,0,29.91,2.797,333,15.36,15.74,110.6588,0.152,49.9,56.75,33.27,34.93
"2018-06-24 09:20:00",346437,0.515,20.85,16.46,74.87,667.8311,0,860.2709,0,16.23,2.93,224,15.35,15.75,102.7942,0.151,49.9,56.81,33.27,34.94
"2018-06-24 09:30:00",346438,0.602,20.31,16.7,70.17,653.6337,0,860.1089,0,27.48,2.82,296,15.36,15.76,98.77023,0.146,49.9,56.75,33.27,34.93
"2018-06-24 09:40:00",346439,0.612,25.05,17.2,69.64,870.7354,0,860.097,0,16.9,2.919,232,15.43,15.74,136.0512,0.155,49.9,56.75,33.27,34.93
"2018-06-24 09:50:00",346440,0.493,20.1,17.66,69.72,887.3577,0,860.0487,0,20.06,2.887,285,15.46,15.74,137.168,0.154,49.9,56.75,33.27,34.93
"2018-06-24 10:00:00",346441,0.488,8.45,17.82,69.4,909.7931,0,860.0081,0,17.77,2.907,220,15.42,15.74,141.5406,0.155,49.84,56.75,33.26,34.93
"2018-06-24 10:10:00",346442,0.437,20.8,18.39,67.59,1041.202,0,860.0099,0,26.41,2.821,302,15.41,15.73,162.5473,0.156,49.84,56.75,33.26,34.93
"2018-06-24 10:20:00",346443,0.437,14.91,18.61,67.52,999.9536,0,860.0997,0,18.23,2.9,216,15.46,15.74,153.9269,0.154,49.9,56.75,33.27,34.93
"2018-06-24 10:30:00",346444,0.671,8.42,18.38,64.94,942.1385,0,860.1236,0,-18.47,3.256,194,15.53,15.7,145.2039,0.154,49.84,56.75,33.26,34.93
"2018-06-24 10:40:00",346445,0.375,302.7,18.33,66.68,721.7828,0,860.251,0,33.38,2.755,327,15.53,15.64,105.9518,0.139,49.84,56.75,33.26,34.93
"2018-06-24 10:50:00",346446,0.328,265.9,18.29,66.01,718.402,0,860.2656,0,15.99,2.924,258,15.6,15.63,110.1667,0.138,49.84,56.75,33.26,34.93
"2018-06-24 11:00:00",346447,0.423,248.5,17.98,64.5,869.2419,0,860.2659,0,17.47,2.909,327,15.61,15.63,135.3108,0.145,49.84,56.75,33.26,34.93
"2018-06-24 11:10:00",346448,0.428,261.1,18.65,61.12,953.7333,0,860.2795,0,28.62,2.8,335,15.7,15.63,146.813,0.15,49.84,56.75,33.26,34.93
"2018-06-24 11:20:00",346449,0.42,246,18.8,59.2,936.7374,0,860.2872,0,25.99,2.824,328,15.75,15.63,148.0021,0.157,49.79,56.75,33.24,34.93
"2018-06-24 11:30:00",346450,0.591,316.7,19.36,58.36,1090.747,0,860.2963,0,-17.11,3.237,204,15.85,15.62,173.5558,0.159,49.79,56.7,33.24,34.91
"2018-06-24 11:40:00",346451,0.483,312.1,19.76,57.02,1094.792,0,860.2828,0,-22.36,3.287,201,15.91,15.62,173.9342,0.159,49.79,56.75,33.24,34.93
"2018-06-24 11:50:00",346452,0.296,249.4,19.89,55.32,1086.467,0,860.2789,0,-17.59,3.239,201,16,15.61,172.5882,0.159,49.73,56.7,33.23,34.91
"2018-06-24 12:00:00",346453,0.435,303.5,20.25,53.7,1085.456,0,860.282,0,29.69,2.782,285,16.03,15.59,172.6083,0.159,49.73,56.75,33.23,34.93
"2018-06-24 12:10:00",346454,0.375,2.948,20.35,53.4,1014.099,0,860.2708,0,-18.26,3.244,202,16.12,15.59,159.7652,0.157,49.73,56.7,33.23,34.91
"2018-06-24 12:20:00",346455,0.513,328.8,20.54,52.61,1092.432,0,860.2594,0,26.88,2.805,306,16.21,15.58,174.8037,0.16,49.73,56.75,33.23,34.93
"2018-06-24 12:30:00",346456,0.511,315,20.77,51.14,1020.014,0,860.2468,0,16.68,2.905,253,16.32,15.57,163.0026,0.16,49.73,56.75,33.23,34.93
"2018-06-24 12:40:00",346457,0.503,273.3,20.83,50.42,1072.689,0,860.2501,0,318,0,0,16.39,15.57,174.9674,0.163,49.68,56.75,33.22,34.93
"2018-06-24 12:50:00",346458,0.633,296.4,20.62,49.49,1049.297,0,860.2576,0,30.4,2.774,292,16.52,15.57,170.8737,0.163,49.62,56.75,33.2,34.93
"2018-06-24 13:00:00",346459,0.514,313.1,21,50.7,991.9139,0,860.2625,0,-11.78,3.177,176,16.63,15.58,161.0095,0.162,49.68,56.7,33.22,34.91
"2018-06-24 13:10:00",346460,0.533,310.3,21.23,52.71,979.1954,0,860.2591,0,-17.22,3.228,197,16.7,15.58,158.6101,0.162,49.62,56.7,33.2,34.91
"2018-06-24 13:20:00",346461,0.258,303.7,21.17,53.39,890.7566,0,860.3018,0,-6.525,3.125,194,16.8,15.58,143.4356,0.16,49.57,56.7,33.19,34.91
"2018-06-24 13:30:00",346462,0.67,294.8,21.33,51.08,1057.016,0,860.3721,0,30.99,2.765,298,16.92,15.58,175.0492,0.165,49.62,56.7,33.2,34.91
"2018-06-24 13:40:00",346463,0.61,27.66,20.67,48.41,581.3469,0,860.2571,0,15.97,2.912,224,17.01,15.59,89.72482,0.154,49.57,56.7,33.19,34.91
"2018-06-24 13:50:00",346464,0.451,285.9,20.75,51.95,822.9304,0,860.2611,0,-14.06,3.199,177,17.13,15.59,135.1539,0.163,49.57,56.7,33.19,34.91
"2018-06-24 14:00:00",346465,0.419,281.4,20.91,48.07,929.1033,0,860.2834,0,-11.23,3.174,174,17.23,15.58,154.5299,0.166,49.57,56.7,33.19,34.91
"2018-06-24 14:10:00",346466,0.352,298.5,20.97,44.82,964.0475,0,860.2786,0,36.28,2.714,386,17.33,15.57,158.0959,0.164,49.51,56.64,33.18,34.9
"2018-06-24 14:20:00",346467,0.38,321.5,21.56,44.71,923.7306,0,860.2074,0,-16.54,3.219,183,17.39,15.59,148.209,0.16,49.51,56.64,33.18,34.9
"2018-06-24 14:30:00",346468,0.274,242.7,21.72,43.27,881.1224,0,860.2592,0,20.03,2.868,232,17.46,15.59,137.6058,0.156,49.46,56.64,33.16,34.9
"2018-06-24 14:40:00",346469,0.46,295,21.72,40.05,867.7359,0,860.071,0,-16.8,3.223,184,17.57,15.62,129.6137,0.149,49.46,56.64,33.16,34.9
"2018-06-24 14:50:00",346470,0.381,218.4,21.68,38.93,842.2572,0,860.0169,0,14.72,2.92,304,17.64,15.64,115.6105,0.137,49.46,56.64,33.16,34.9
"2018-06-24 15:00:00",346471,0.509,203.2,21.54,41.1,812.7029,0,859.9827,0,28.16,2.791,312,17.7,15.59,95.12778,0.117,49.46,56.64,33.16,34.9
"2018-06-24 15:10:00",346472,0.506,268.7,21.4,41.43,782.7553,0,860.1226,0,16.69,2.901,254,17.8,15.59,73.77821,0.094,49.41,56.64,33.15,34.9
"2018-06-24 15:20:00",346473,0.355,264.1,21.21,38.86,723.4462,0,860.2703,0,16.84,2.903,215,17.86,15.59,53.26192,0.073,49.35,56.58,33.14,34.88
"2018-06-24 15:30:00",346474,0.39,238.2,20.73,31.45,560.6429,0,860.4296,0,-16,3.221,195,17.96,15.59,32.0254,0.067,49.35,56.58,33.14,34.88
"2018-06-24 15:40:00",346475,0.803,179,20.61,31.65,236.6266,0,860.7103,0,-10.81,3.17,182,18.01,15.61,26.9209,0.129,49.35,56.58,33.14,34.88
"2018-06-24 15:50:00",346476,0.617,115.9,20.66,30.91,106.3574,0,860.8292,0,-11.52,3.179,188,18.04,15.74,23.0063,0.235,49.35,56.58,33.14,34.88
"2018-06-24 16:00:00",346477,0.366,212.5,20.14,34.49,109.816,0,861.0295,0,17.36,2.901,212,18.15,15.75,20.1793,0.187,49.3,56.58,33.12,34.88
"2018-06-24 16:10:00",346478,0.457,174.5,20.12,40.04,133.5157,0,861.0886,0,-18.66,3.251,179,18.2,15.72,19.75488,0.157,49.3,56.52,33.12,34.87
"2018-06-24 16:20:00",346479,0.558,86.9,20.04,39.05,103.6652,0,861.1349,0,-11.18,3.175,181,18.24,15.81,17.69337,0.171,49.3,56.52,33.12,34.87
"2018-06-24 16:30:00",346480,0.846,46.04,20.22,35.21,84.19453,0,861.1381,0,17.49,2.9,242,18.34,15.89,14.62763,0.173,49.24,56.52,33.11,34.87
"2018-06-24 16:40:00",346481,0.79,24.37,19.94,33.87,72.27398,0,861.3259,0,18.48,2.891,222,18.33,15.88,12.13411,0.168,49.24,56.52,33.11,34.87
"2018-06-24 16:50:00",346482,0.82,321.6,19.76,33.7,67.88779,0,861.4249,0,-14.6,3.213,190,18.38,15.88,10.92146,0.16,49.24,56.52,33.11,34.87
"2018-06-24 17:00:00",346483,0.857,299.6,19.58,32.97,60.12548,0,861.6397,0,-19.45,3.26,177,18.45,15.87,10.04607,0.167,49.19,56.52,33.09,34.87
"2018-06-24 17:10:00",346484,0.627,296.2,19.57,32.6,44.61658,0,861.783,0,24.78,2.833,342,18.45,15.88,7.1016,0.159,49.19,56.52,33.09,34.87
"2018-06-24 17:20:00",346485,0.541,66.19,19.42,35.5,46.1769,0,861.7956,0,-15.23,3.22,196,18.45,15.98,6.745383,0.145,49.19,56.52,33.09,34.87
"2018-06-24 17:30:00",346486,0.777,316.5,19.21,36.28,45.08035,0,861.8483,0,24.66,2.836,399,18.45,15.98,6.309586,0.138,49.19,56.46,33.09,34.86
"2018-06-24 17:40:00",346487,0.463,315.7,19.06,36.81,57.11488,0,861.9052,0,29.77,2.787,433,18.47,15.97,8.238462,0.144,49.13,56.52,33.08,34.87
"2018-06-24 17:50:00",346488,0.435,271.7,18.73,37.79,54.34403,0,862.101,0,30.46,2.782,283,18.49,15.97,7.719295,0.142,49.13,56.46,33.08,34.86
"2018-06-24 18:00:00",346489,0.303,240.6,18.47,40.51,44.21962,0,862.1305,0,30.76,2.782,285,18.49,16.02,6.014001,0.136,49.13,56.46,33.08,34.86
"2018-06-24 18:10:00",346490,0.266,147.1,17.88,43.73,39.91203,0,862.3748,0,318,0,0,18.5,16.1,5.093143,0.127,49.13,56.46,33.08,34.86
"2018-06-24 18:20:00",346491,0.222,142.3,17.57,47.09,22.83102,0,862.5664,0,-11.31,3.194,175,18.54,16.13,2.493518,0.108,49.13,56.41,33.08,34.84
"2018-06-24 18:30:00",346492,0.176,270.2,17.29,46.9,26.82812,0,862.6949,0,-7.768,3.158,187,18.5,16.15,3.80091,0.141,49.13,56.41,33.08,34.84
"2018-06-24 18:40:00",346493,0.156,3.289,17.46,45.39,23.86468,0,862.9203,0,22.23,2.867,266,18.42,16.15,3.96007,0.166,49.13,56.46,33.08,34.86
"2018-06-24 18:50:00",346494,0.305,35.07,17.3,44.61,18.86536,0,863.1098,0,-7.912,3.162,173,18.41,16.14,3.403008,0.18,49.13,56.46,33.08,34.86
"2018-06-24 19:00:00",346495,0.245,48.36,16.81,47.55,11.44106,0,863.1309,0,20.04,2.893,245,18.49,16.17,1.837927,0.158,49.13,56.41,33.08,34.84
"2018-06-24 19:10:00",346496,0.169,92.1,16.69,50.7,3.694466,0,863.3437,0,19.37,2.899,240,18.49,16.16,0.8071722,0.284,49.08,56.46,33.07,34.86
"2018-06-24 19:20:00",346497,0.257,100.5,16.19,53.87,0.1375599,0,863.3584,0,-9.13,3.18,170,18.36,16.21,0.1553712,0.248,49.08,56.46,33.07,34.86
"2018-06-24 19:30:00",346498,0.117,72.68,16.64,48.85,0,0,863.4005,0,-9.82,3.181,177,18.37,16.23,0.8640153,0,49.08,56.46,33.07,34.86
"2018-06-24 19:40:00",346499,0.404,337.7,17.14,46.31,0,0,863.6153,0,-24.97,3.329,200,18.39,16.24,0.7465395,0,49.08,56.41,33.07,34.84
"2018-06-24 19:50:00",346500,0.343,185.1,16.81,47.96,0,0,863.6174,0,28.09,2.814,444,18.28,16.28,0.1250549,0,49.08,56.41,33.07,34.84
"2018-06-24 20:00:00",346501,0.295,151.2,16.18,51.12,0,0,863.6848,0,19.82,2.899,316,18.3,16.24,0.007579082,0,49.08,56.41,33.07,34.84
"2018-06-24 20:10:00",346502,0.464,180.8,16.34,49.42,0,0,863.8386,0,-14.05,3.223,187,18.28,16.28,0.3410587,0,49.08,56.41,33.07,34.84
"2018-06-24 20:20:00",346503,0.417,203.5,16.38,48.67,0,0,863.965,0,19.01,2.906,272,18.22,16.32,0.2160038,0,49.08,56.41,33.07,34.84
"2018-06-24 20:30:00",346504,0.363,234,16.45,46.57,0,0,864.1208,0,-17.29,3.254,200,18.23,16.35,0.4282182,0,49.03,56.41,33.05,34.84
"2018-06-24 20:40:00",346505,0.495,204.4,16.63,45.43,0,0,864.1208,0,31.14,2.786,292,18.21,16.39,0.189477,0,49.03,56.35,33.05,34.83
"2018-06-24 20:50:00",346506,0.689,221.1,16.47,46.9,0,0,864.302,0,-57.76,3.65,336,18.16,16.37,0.0189477,0,49.08,56.35,33.07,34.83
"2018-06-24 21:00:00",346507,0.59,173.5,16.21,47.79,0,0,864.3737,0,-9.79,3.184,182,18.15,16.43,0.003789541,0,49.08,56.35,33.07,34.83
"2018-06-24 21:10:00",346508,0.764,177.4,16.17,47.27,0,0,864.5611,0,18.06,2.915,256,18.07,16.41,0.02652679,0,49.08,56.35,33.07,34.83
"2018-06-24 21:20:00",346509,0.805,194.1,16.22,45.63,0,0,864.6263,0,-59.15,3.664,369,18.04,16.41,0.007579082,0,49.08,56.35,33.07,34.83
"2018-06-24 21:30:00",346510,0.531,212.5,16.49,43.84,0,0,864.8412,0,28.54,2.81,296,18.06,16.42,0.1553712,0,49.03,56.35,33.05,34.83
"2018-06-24 21:40:00",346511,0.735,197.2,16.58,42.76,0,0,864.9128,0,-17.66,3.259,176,17.96,16.48,0.08715944,0,49.03,56.35,33.05,34.83
"2018-06-24 21:50:00",346512,0.476,299.7,16.61,42.56,0,0,864.8981,0,-7.869,3.163,192,17.96,16.54,0.06063266,0,49.08,56.35,33.07,34.83
"2018-06-24 22:00:00",346513,0.655,197.9,16.42,44.13,0,0,864.9655,0,-21.47,3.299,195,17.89,16.51,0.03410587,0,49.08,56.29,33.07,34.82
"2018-06-24 22:10:00",346514,0.294,171,16.22,45.34,0,0,865.1192,0,17.7,2.917,240,17.88,16.53,0.01136862,0,49.08,56.29,33.07,34.82
"2018-06-24 22:20:00",346515,0.583,164.2,16.31,45.41,0,0,865.0244,0,21.91,2.877,490,17.88,16.53,0.05305357,0,49.03,56.29,33.05,34.82
"2018-06-24 22:30:00",346516,0.838,196.7,16.31,46.06,0,0,864.9212,0,16.68,2.926,238,17.84,16.52,0.1250549,0,49.03,56.29,33.05,34.82
"2018-06-24 22:40:00",346517,0.495,205.4,16.42,47.01,0,0,864.995,0,16.12,2.935,228,17.8,16.49,0.1174758,0,49.03,56.29,33.05,34.82
"2018-06-24 22:50:00",346518,0.613,227.1,15.97,48.03,0,0,865.0392,0,16.4,2.929,214,17.76,16.49,0.03410587,0,49.03,56.29,33.05,34.82
"2018-06-24 23:00:00",346519,0.548,295.1,16.45,47.08,0,0,865.1192,0,-8.9,3.173,169,17.72,16.5,0.2235829,0,49.03,56.29,33.05,34.82
"2018-06-24 23:10:00",346520,0.34,159.1,16.46,48.27,0,0,865.1318,0,14.93,2.947,242,17.68,16.54,0.1098967,0,49.03,56.29,33.05,34.82
"2018-06-24 23:20:00",346521,0.405,243.3,16.41,50.38,0,0,865.1318,0,15.62,2.935,222,17.64,16.57,0.2538992,0,49.03,56.29,33.05,34.82
"2018-06-24 23:30:00",346522,0.377,100.6,16.46,50.85,0,0,865.1318,0,-10.92,3.195,191,17.62,16.58,0.1440025,0,49.03,56.23,33.05,34.8
"2018-06-24 23:40:00",346523,0.452,43.35,16.48,50.12,0,0,865.1298,0,15.57,2.937,216,17.56,16.58,0.2425306,0,49.03,56.23,33.05,34.8
"2018-06-24 23:50:00",346524,0.514,41.62,16.64,50.04,0,0,865.1318,0,15.07,2.941,230,17.57,16.58,0.2349515,0,49.03,56.23,33.05,34.8
